Race Results for
Cyclebration South Canal Time Trial
Folsom, CA
(Event Information)
Time Trial on 09/10/2010

Note: Ranking points are NOT upgrade points. An explanation of ranking points can be found here.


Men - Hand Cycle

 Place Points NameCity, StateTime USAC #BibTeam
1540.00Niel Harding   West Bountiful, UT0:30:42 292221  1506 US Handcycling
2543.57Robert Ackerman   West Valley City, UT0:33:52 300351  1500 
3Kyle MASSEY   0:34:00  1516 
4Matt STRUGAR-FRITSCH   0:34:11  1515 
5554.28Craig Cornwall   Boise0:36:15 133580  1503 Boise State University
6557.85Eric Stampfli   Danville, CA0:37:14 292911  1514 
7561.42Austin Snyder   Tucson, AZ0:38:30 326440  1513 
8Rodger ROBINSON   0:38:47  1511 
9Chris HOUDE   0:39:04  1507 
10Kent GILLIS   0:39:07  1505 
11575.70Martin Gerber   Sacramento, CA0:43:24 317434  1504 
12579.27AARON ROUX   Tucson, AZ0:49:07 319626  1512 
13Dominic COOKE   0:58:12  1502 
14rick MASON   0:59:29  1509 
15Lynn MURRAY   1:13:16  1510 
DNSHarold Bostick   Northridge, CA 264991  1501 
DNSAlvin Malave   West Hills, CA 318858  1508 

Men - Cat 5

 Place Points NameCity, StateTime USAC #BibTeam
1540.00LeeJ Hinge   Granite Bay, CA0:24:52 297578  506 Team Bicycles Plus/Sierra Nevada
2543.33Jeff Bilodeau   Brentwood, CA0:25:09 305630  500 taleo racing
3546.66Gregory Hinge   Reno, NV0:25:21 304223  505 Team Bicycles Plus/Sierra Nevada
4549.99Gabriel Garroni   Mc Kinney, TX0:25:38 280689  503 Rio Strada
5553.32Justin Romney   Placerville, CA0:25:42 310997  512 Victory Velo
6Dean KLOTZ   0:25:43  508 
7Brent COHEN   0:25:49  502 
8563.31Sean Gilson   Sacramento, CA0:26:11 321722  504 
9566.64Peter Spencer   Berkeley, CA0:26:24 282697  514 Lamorinda Cycling Club
10569.97Nathan Wilson   Fair Oaks, CA0:27:09 323396  516 Body Concepts
11573.30Anthony Pelosi   Folsom, CA0:27:14 223582  510 NA
12vic CLEMENTI   0:27:33  501 
13579.96Dennis Plessas   Gold River, CA0:27:42 202958  511 None
14583.29Stephen Shafer   Springville, CA0:28:38 318242  513 Southern Sierra Cyclists
15586.62Christopher Westphal   Sacramento, CA0:28:55 121777  515 Rio Strada
16Anthony HOLLY   0:32:21  507 
DNSAdam Pawlowski   Carmel, CA 221007  509 Walthour
DNSRyan MYER     537 

Men - Cat 5 - 35-99

 Place Points NameCity, StateTime USAC #BibTeam
1Andrew BYER   0:25:42  850 
2519.36William Schultz   Walnutcrek, CA0:26:01 280827  868 No Quarter Racing
3522.89Lance Loveday   Auburn, CA0:26:05 305459  860 Victory Velo
4Paul KEMPLER   0:26:25  858 
5529.95Brodie Cobb   Sanfrancisco, CA0:26:31 290773  897 
6John WICKERAAD   0:26:49  871 
7537.01Kenny Bailey   Folsom, CA0:26:59 305104  849 Body Concepts
8540.54Patrick Peters   Davis, CA0:27:04 303960  866 
9544.07Nathan Trueblood   Davis, CA0:27:14 35982  869 Davis Bike Club
10Noah CAMPBELL-LUND   0:27:19  851 
11551.13Kevin Miller   Granite Bay, CA0:27:24 307115  863 Victory Velo
12554.66Rod Halbert   Roseville, CA0:27:45 127555  855 OneRide.us
13558.19barry elting   Oakdale, CA0:27:46 304311  852 Fun Sport Bikes Cycling Team
14561.72Bruce McAllister   El Dorado Hills, CA0:28:07 326118  861 team bicycles plus sierra nevada
15565.25David Mehl   El Dorado Hills, CA0:28:11 290396  862 Team Kinetic Cycles
16Patrick SCOTT   0:28:33  898 
17Russell FOWLER   0:29:03  853 
18575.84Terry Green   Auburn, CA0:29:03 322256  854 Team Revolutions
19ryan ROMERO   0:29:30  867 
20Eric LOEWE   0:29:40  859 
21586.43Michael O'Dell   Folsom, CA0:30:01 231563  865 Bicycle Planet
22589.96lonny morgan   Carmichael, CA0:31:13 303146  864 colavita racing nor-cal
DNSDarrin Jenkins   Rohnert Park, CA 266709  856 
DNSRik KELLER     857 
DNSJason Wagner   Sacramento, CA 297789  870 Squadra Abruzzo

Men - Cat 4

 Place Points NameCity, StateTime USAC #BibTeam
1486.12Andreas Schulten   Cameron Park, CA0:24:09 248096  414 Bicycle Planet
2491.07Allen Brumm   Foster City, CA0:24:28 195431  402 Webcor/Alto Velo
3496.02Josh Keel   Morgan Hill, CA0:24:39 194966  407 Rio Strada Racing
4500.97Kevin Tufts   Cameron Park, CA0:24:40 243434  418 Bicycle Planet
5505.92John Novikoff   Rocklin, CA0:24:58 239990  411 Bicycle Planet
6510.87Michael White   Folsom, CA0:25:11 299962  420 Team Bicycles Plus/Sierra Nevada
7515.82Justin Leopold   Independence, MO0:25:42 299868  409 Celerity Cycling p/b Fitness Together
8520.77Steven Sperling   Grand Junction, CO0:25:47 204146  416 LOOK CYCLE-USA Race Team
9525.72Kalman Zeiger   San Francisco, CA0:26:10 237651  422 Godspeed Courier
10530.67adam thatcher   Chico, CA0:26:24 311983  417 Chico Corsa
11535.62David Wickeraad   Lincoln, CA0:26:30 257005  421 Stanford University
12540.57Nathanael Dunn   Fair Oaks, CA0:26:42 290357  403 Rio Strada Racing
13545.52Timothy Mualchin   Vacaville, CA0:27:00 197634  410 NA
14550.47Oliver Weiss   Roseville, CA0:27:00 79603  419 Rio Strada Racing
15555.42Eddie Sahyoun   Rocklin, CA0:27:12 291352  413 Victory Velo
16560.37John Becker   Sanfrancisco, CA0:27:27 284814  400 Team Roaring Mouse
17565.32Adam Garcia   San Francisco, CA0:27:29 286990  404 Taleo Racing
18570.27Daniel Lebson   Folsom, CA0:27:29 295237  408 Rio Strada Racing
19575.22Frank Shoemaker   Folsom, CA0:27:37 32519  415 Bicycle Planet
20580.17Warren Johnson   Yountville, CA0:28:54 155187  406 eagle racing team
21585.12Anthony ODell   Orangevale, CA0:29:05 287267  412 Bicycle Planet
22Dan SWITLICK   0:29:46  441 Folsom Bike
DNSzach behrendt   Sacramento, CA 312416  401 bicycle chef
DNSERIC HOUSTON   Antelope, CA 284959  405 KINETIC CYCLE

Men - Cat 4 - 35-99

 Place Points NameCity, StateTime USAC #BibTeam
1480.88Greg Cook   El Dorado Hills, CA0:23:15 287558  705 Team Bicycles Plus/Sierra Nevada
2485.08Michael Kopp   San Francisco, CA0:23:18 286893  713 Taleo Racing
3489.28Jay Newton   Roseville, CA0:23:25 271095  716 Victory Velo
4493.48Kashy Ghazzagh   Santa Rosa, CA0:23:33 295719  710 Team Norcal Bike Sport
5497.68Daniel Vigil   San Francisco, CA0:24:07 310724  725 Mission Cycling
6501.88Andreas Schulten   Cameron Park, CA0:24:10 248096  720 Bicycle Planet
7506.08Jeffrey Weaver   Sacramento, CA0:24:31 290926  728 Davis Bike Club
8510.28John Ellis   Santa Rosa, CA0:24:52 262353  708 Colavita Racing-Norcal
9514.48Aaron Lombardi   Elk Grove, CA0:24:53 258261  714 Rio Strada Racing
10518.68Jonathan Pettengill   Reno, NV0:25:03 287637  719 Lenovo
11522.88Robert Herber   Vallejo, CA0:25:27 212147  712 7-11 Philippines
12527.08Craig Dolley   El Dorado Hills, CA0:25:45 158073  706 Team Bicycles Plus/Sierra Nevada
13531.28Patrick Cashell   Reno, NV0:25:50 305317  702 
14535.48Darron Sturgeon   Reno, NV0:25:50 286787  721 Reno Wheelmen
15539.68John Collins   Folsom, CA0:25:58 231774  704 Team Revolutions
16543.88Brandon Tyler   Sanmateo, CA0:25:58 298307  723 Peninsula Velo/Pomodoro
17548.08Peter Unruh   Calistoga, CA0:26:01 110667  724 
18552.28Dwayne Halterman   Napa, CA0:26:10 175758  711 Eagle Cycling Club
19556.48Morgan Mahanke   El Dorado Hills, CA0:26:13 226577  715 Team Bicycles Plus/Sierra Nevada
20560.68Brian Pantiga   Folsom, CA0:26:20 61633  718 Bicycle Planet
21564.88James Whitney   Lincoln, CA0:26:38 51073  729 Fusion Sport
22569.08James Allen   Danville, CA0:26:44 287305  700 Webcor/Alto Velo
23573.28Donald Eipper   El Dorado Hills, CA0:26:52 248941  707 Team Revolutions
24577.48Anthony Eng   El Cerrito, CA0:27:17 245065  709 Kaiser Permanente/ Team Oakland Cycling
25581.68Rowel (Rob) Palisoc   Berkeley, CA0:27:30 195972  717 Team Oakland
26585.88Michael Vondergeest   Sacramento, CA0:27:35 166716  726 Rio Strada Racing
27590.08Jeff Watson   Elk Grove, CA0:28:50 293136  727 Team Bicycles Plus/Sierra Nevada
DNSWilliam Youngman   Rocklin, CA 203737  730 Squadra Abruzzo
DNSGilbert Tarin   Knightsen, CA 252241  722 Taleo Racing
DNSChad Cheadle   Petaluma, CA 209823  703 Colavita Racing-Norcal
DNSPeter Aughney   Novato, CA 272800  701 Taleo Racing

Men - Cat 4 - 45-99

 Place Points NameCity, StateTime USAC #BibTeam
1473.70Richard Coyle   Granite Bay, CA0:24:23 277158  1003 Rio Strada Racing
2479.24jeff upton   Grass Valley, CA0:24:25 315494  1024 Folsom Bike
3484.78Bob Ehardt   Orangevale, CA0:24:33 286992  1007 Bicycle Planet
4490.32Rick Kile   Placerville, CA0:24:46 195955  1012 Body Concepts
5495.86Dave Dunkley   Clayton, CA0:24:55 195560  1006 Wells Fargo Racing Team
6501.40Mark Powers   San Mateo, CA0:25:01 236460  1017 Peninsula Velo/Pomodoro
7506.94Timothy Spillane   Roseville, CA0:25:20 110134  1021 Rio Strada Racing
8512.48Raymond Gildea   Emerald Hills, CA0:25:38 133970  1008 Peninsula Velo/ Pomodoro
9518.02Bradley Thomas   El Macero, CA0:25:38 300596  1023 Team Mason Thomas
10523.56Thomas Kellner   Sacramento, CA0:25:40 195574  1011 Davis Bike Club Race Team
11529.10Gilbert Tarin   Knightsen, CA0:25:45 252241  1022 Taleo Racing
12534.64Matt Colonius   Rocklin, CA0:25:47 7464  1002 Bicycle Planet
13540.18Travis Selk   Concord, CA0:25:50 242087  1020 Tri Valley Velo
14545.72Jeffrey Patterson   Half Moon Bay, CA0:25:54 305076  1016 Peninsula Velo/Pomodoro
15551.26Mark Williams   Nevada City, CA0:25:59 38392  1025 SERT/Sho-Air
16556.80Todd Dambly   Folsom, CA0:26:01 212968  1005 Bicycle Planet
17562.34Scott Riddle   San Jose, CA0:26:04 270475  1018 SJBC
18567.88Frank Lunceford Sr   El Dorado Hills, CA0:26:26 273343  1013 Bicycle Planet
19573.42Philip Blay   Folsom, CA0:27:04 274756  1000 Folsom Bike
20578.96James Good   Oakland, CA0:27:24 254097  1009 Taleo Racing
21584.50Chris Crosta   Roseville, CA0:27:25 267843  1004 Squadra Abruzzo
22Fred HAINES   0:28:42  1010 
DNSKevin McMurtry   Nevada City, CA 287169  1014 SERT/Sho-Air
DNSSid Noyes   Eureka, CA 54640  1015 Echelon Gran Fondo/ZTeam

Men - Cat 3

 Place Points NameCity, StateTime USAC #BibTeam
1439.91Lance Newey   Fair Oaks, CA0:23:31 202161  224 Team Bicycles Plus/Sierra Nevada
2443.86Kirk Evans   Sacramento, CA0:23:40 259534  211 Team Becher+
3447.81Matt Connolly   Sacramento, CA0:23:42 302694  208 Rio Strada Racing
4451.76Alan Zinniker   Aliso Viejo, CA0:23:46 200876  238 Ritte Racing
5455.71Justin Ishida   Berkeley, CA0:23:47 274183  217 
6459.66Joe Galloway   Exeter, CA0:23:48 242644  213 Sierra Pacific Racing
7463.61Mark Slavonia   San Francisco, CA0:23:50 49355  229 Peninsula Velo/Pomodoro
8467.56Nick Kersmarki   Santa Rosa, CA0:23:56 226913  218 Team NorCal Bike Sport
9471.51Chris Parod   Mather, CA0:24:06 270992  226 Team Bicycles Plus/Sierra Nevada
10475.46C Scott Lee   Sacramento, CA0:24:08 103903  220 Kinetic Cycles/GBI
11479.41Jeromy Cottell   Redwood City, CA0:24:09 273912  209 Peninsula Velo / Pomodoro
12483.36Roger Martin   Danville, CA0:24:16 276924  221 Taleo Racing
13487.31fergus tanaka   San Francisco, CA0:24:25 304367  231 chica sexy
14491.26Steven Woo   Los Altos, CA0:24:30 38840  237 Third Pillar
15495.21David Nader   San Mateo, CA0:24:31 175914  223 Pen Velo Pomodoro
16499.16Sean McDonald   Wallace, CA0:24:33 262357  222 Pacific State Bank Cycling Team
17503.11Patrick Thomas   Aptos, CA0:24:35 294849  234 
18507.06Johannes Kratz   Cambridge, MA0:24:40 286729  219 Metromint Cycling
19511.01Steve Offerman   Sacramento, CA0:24:46 81992  225 Rio Strada Racing
20514.96Robert Amatelli   San Jose, CA0:24:49 270304  200 the Spokesman
21518.91Michael Boehme   Windsor, CA0:25:01 252576  201 Colavita Racing-Norcal
22522.86Ken Todd   Folsom, CA0:25:01 174881  235 Team Bicycles Plus/Sierra Nevada
23526.81Scott Cole   Oakland, CA0:25:03 199614  207 Third Pillar
24530.76Terence Traughber Jr   Pasadena, CA0:25:09 269632  236 Ritte Racing
25534.71Jason Buckley   Sonoma, CA0:25:11 274029  204 Colavita Racing
26Nick KINNEY   0:25:15  266 
27542.61Nick Humphrey   South Pasadena, CA0:25:21 86499  216 Pasadena Athletic Assoc (PAA)
28546.56Garrett Hankins   Carmichael, CA0:25:22 298571  214 Team City
29550.51Dan Tedford   Mountain View, CA0:25:27 196695  232 Squadra Ovest Cycling
30554.46Benjamin Stern   Mequon, WI0:25:43 238365  230 Team Roaring Mouse
31558.41Santiago Bolon   San Jose, CA0:25:55 195384  202 Christian Cycling - Hammer Nutrition
32562.36Chris Dawson   Sacramento, CA0:25:58 224241  210 Hot Italian
33566.31Anthony Ferretti   Oroville, CA0:26:13 283185  212 Chico Corsa
34570.26Rob Brandt   Ennis, MT0:26:14 298803  203 Kryki Sports
35574.21Kalani Hines   San Francisco, CA0:26:17 219316  215 metromint cycling
36578.16Chris Payne   Reno, NV0:26:32 27493  227 Reno Wheelmen
37582.11Michael Claudio   West Sacramento, CA0:26:33 248052  206 Ikon Cycles Race Team
38586.06Andre Tenthorey   Granite Bay, CA0:27:04 76561  233 Shriners Quick Step
39590.01Erik Salander   Belmont, CA0:27:21 195443  228 Peninsula Velo/Pomodoro
DNSMark Chaisson   Seattle, WA 90030  205 Peninsula Velo/Pomodoro

Men - Cat 1/2/3 - 35-99

 Place Points NameCity, StateTime USAC #BibTeam
1374.31Jesse Moore   Sacramento, CA0:21:48 204739  615 California Giant
2383.69Jason Grefrath   Sacramento, CA0:22:33 281883  607 Taleo Racing
3393.07Daniel Bryant   Carmichael, CA0:22:41 195929  602 Vitamin Water/Folsom Bike
4402.45Matthew Ream   Verdi, NV0:22:48 211441  620 Kinetic Cycles / GBI
5411.83Gregory Anderson   Vacaville, CA0:22:50 90802  600 Morgan Stanley Smith Barney/Specialized
6421.21Alex Holtz   Sacramento, CA0:23:15 61440  610 Morgan Stanley Smith Barney/Specialized
7430.59Jens Hillen   Orinda, CA0:23:17 226525  638 Berkeley Bicycle Club (BBC)
8439.97Jason Boynton   Yuba City, CA0:23:18 4526  601 Rocknasium
9449.35Jan Weissenberger   San Francisco, CA0:23:18 186678  625 SAFEWAY/Bicycles Plus/PureRed Creative
10458.73Scott Fonseca   Fair Oaks, CA0:23:25 204715  604 Zenn Racing Team
11468.11Raffi Jilizian   Danville, CA0:23:37 187667  611 FORM Fitness
12477.49Michael Hernandez   Oakland, CA0:23:38 136641  608 Kinetic Cycles/GBI
13486.87Chad DeMasi   Davis, CA0:23:56 158049  603 Rocknasium
14496.25Gregory Gambetta   Sacramento, CA0:23:57 212916  605 Vitamin Water/Folsom Bike
15505.63Nick Theobald   Burlingame, CA0:24:06 35297  622 SAFEWAY/Bicycles Plus/PureRed Creative
16515.01Fred Ramos   Davis, CA0:24:17 195221  619 Zenn Racing Team
17524.39Kerry Stockwell   Folsom, CA0:24:20 34228  621 Folsom Bike
18533.77Steve Thomsen   Reno, NV0:24:21 245436  623 Kinetic Cycles
19543.15Roger Martin   Danville, CA0:24:30 276924  614 Taleo Racing
20552.53Scott Peifer   Granite Bay, CA0:24:30 265877  618 Vitamin Water/Folsom Bike
21561.91Chris Ott   San Jose, CA0:24:45 26920  617 Zenn Racing Team
22571.29Joseph Oliveri   Grass Valley, CA0:24:50 26674  616 HDR pb/Lombardi Sports
23580.67wilson gorrell   Folsom, CA0:24:57 254622  606 Vitamin Water/Folsom Bike
24590.05Rich Mader   Sacramento, CA0:27:09 222996  613 Zenn Racing Team
DNSChristopher Lyman   Napa, CA 267171  612 Team Specialized Racing
DNSRoger Hogan   Fresno, CA 285192  609 California Giant Cycling
DNSChad Timmerman   Reno, NV 43029  624 Team Clover

Men - Cat 1/2/3 - 45-99

 Place Points NameCity, StateTime USAC #BibTeam
1366.88Cale Reeder   Cameron Park, CA0:22:18 272237  1610 Echelon Gran Fondo/Zteam
2382.82John Novitsky   Woodside, CA0:22:48 102274  1608 VOS Racing
3398.76Max Thompson   San Anselmo, CA0:23:29 80642  1617 VOS Racing
4414.70Robert Napieralski   Springville, CA0:23:47 271499  1607 Yokohl Ranch/Sierra Bicycle Werks
5430.64Gregg Betonte   Truckee, CA0:23:48 255414  1600 SAFEWAY/Bicycles Plus/PureRed Creative
6446.58John Hancock   Sacramento, CA0:23:54 195844  1605 Team Bicycles Plus
7462.52Steve Showler   Carmichael, CA0:24:16 32554  1613 Rocknasium
8478.46Kevin Willitts   S Lake Tahoe, CA0:24:27 192774  1618 Team Bicycles Plus/Sierra Nevada
9494.40Richard Burns   Folsom, CA0:24:35 255440  1601 Team Bicycles Plus/Sierra Nevada
10510.34Joseph Oliveri   Grass Valley, CA0:24:43 26674  1609 HDR pb/Lombardi Sports
11526.28Ken Hill   Woodland, CA0:24:45 274292  1606 Davis Bike Club
12542.22Carlos Casillas   Davis, CA0:25:24 47024  1602 Davis Bike Club
13558.16Rodney Spradlin   El Dorado Hills, CA0:25:45 122266  1614 Rocknasium
14574.10Duane Strawser   Nevada City, CA0:26:59 34392  1615 SERT/Sho-Air
15590.04Rich Rozzi   Hollywood Ca0:27:31 230031  1612 Colavita Racing-Norcal
DNSRussell Clays   Tracy, CA 50248  1603 IC3
DNSThomas Coulter   Rocklin, CA 74102  1604 Mogan Stanley Smith Barney Specialized
DNSTony Reid   Sacramento, CA 29458  1611 SAFEWAY/Bicycles Plus/PureRed Creative
DNSPatrick Tafoya   Redwood City, CA 34910  1616 Safeway/BicyclesPlus/PureRedCreative

Men - Cat 1/2/3 - 55-99

 Place Points NameCity, StateTime USAC #BibTeam
1436.80John Zunino   Arnold, CA0:24:10 196757  1705 TeamBicyclesPlus/SierraNevada
2456.26Mac Carey   Pleasant Hill, CA0:24:26 249301  1706 Taleo Racing
3475.72Manuel Borges   Vacavaille, CA0:25:47 254360  1701 VOS Racing
4495.18Dana Farmer   Gold River, CA0:26:33 150815  1702 VOS-Racing
5514.64Jay Kinney   Placerville, CA0:26:47 125352  1707 West Coast Cycling Team
6534.10Keith Ritter   Redding, CA0:27:33 286668  1704 Redding Velo
7553.56Greg Bollella   Redwood City, CA0:27:38 235126  1700 Webcor / Alto Velo
8573.02Steve Grube   Sacramento, CA0:29:40 51158  1703 Sacramento Golden Wheelmen
DNSPeter Steiner (Cat3)   Oakland 33978  1708 Berkeley Bicycle Club (BBC)

Men - Cat 1/2

 Place Points NameCity, StateTime USAC #BibTeam
1182.62Jesse Moore   Sacramento, CA0:21:37 204739  17 California Giant
2196.67Philip Mooney   San Rafael , CA0:21:47 206962  16 Yahoo! Cycling Team
3210.72Evan Huffman   El Dorado Hills, CA0:21:48 256955  11 Yahoo! Cycling Team
4224.77Ryan Parnes   Stockton, CA0:22:09 220414  19 Yahoo! Cycling Team
5Collin SAMAAN   0:22:15  37 
6252.87Justin Rossi   Reno, NV0:22:16 298550  24 Cyclepaths Wild Cherries
7266.92Adam Switters   Citrus Heights, CA0:22:24 127093  28 Yahoo Cycling Team
8280.97Jonathan Lee   Santa Rosa, CA0:22:34 217858  15 Team NorCal Bike Sport
9295.02Maxim Jenkins   Citrus Heights, CA0:22:35 195652  13 UCI CT: UnitedHealthcare pb. Maxxis
10309.07Eric Riggs   Antelope, CA0:22:55 191302  21 SF Velosport
11323.12Keith Hillier   Millbrae, CA0:22:58 276108  10 Davis Bike Club
12337.17Joshua Carling   Rancho Cordova, CA0:23:03 234584  Williams Cycling
13351.22Russell White   Lafayette, CA0:23:04 236024  29 Davis Bike Club
14365.27Tyler Dibble   Oakland, CA0:23:13 205861  Yahoo! Cycling Team
15379.32Gerald Roberts   Sacramento, CA0:23:17 30073  22 Team Bicycles Plus/Sierra Nevada
16393.37Todd Stone   Carmichael, CA0:23:17 249318  27 Rio Strada Racing
17407.42Patrick Briggs   Oakland, CA0:23:23 4838  Yahoo! Cycling Team
18421.47Bryan Larsen   Dana Point, CA0:23:23 195204  14 Rancho's
19435.52Mark Shimahara   Ventura, CA0:23:39 32481  25 Team Clif Bar
20449.57Sean Smith   Oakland, CA0:23:53 204018  26 Squadra Ovest Cycling
21463.62Brad Ahrens (1 - Cat2)   Sulphur, LA0:23:55 298121  Delta Racing p/b Raising Cane's
22477.67Dylan Clark (2 - Cat2)   Auburn, CA0:24:09 243069  Webcor/ Alto Velo
23491.72Nathan Freed   Tahoe City, CA0:24:18 86484  Team Clif Bar
24505.77Mark Deterline   Salt Lake City, UT0:24:33 43613  Wells Fargo Racing Team
25519.82Nicholas Oliver   El Dorado Hills, CA0:24:34 271541  18 Wells Fargo Racing
26533.87John Piasta   Santa Rosa, CA0:24:40 271963  20 All Sport-Team Swift
27547.92Mark Fairman   San Francisco, CA0:24:52 270120  Metromint Cycling
28561.97James Hardy   Oakland, CA0:24:55 80116  Kaiser Permanente/ Team Oakland Cycling
29576.02Adam Ross   Folsom, CA0:25:03 167796  23 Wells Fargo Racing Team
30590.07Michael Jasinski   Rocklin, CA0:25:19 269476  12 Chico Corsa Cycling Club

Men - Junior

 Place Points NameCity, StateTime USAC #BibTeam
1Zachariah MCCLENDON   0:30:10  1302 
2Curtis TRUEBLOOD   0:34:02  1303 
3573.34Samuel Hill   Woodland, CA0:34:43 318306  1301 Davis Bike Club Race Team
4590.01Benjamin Fogiel   Nevada City, CA0:37:14 310224  1300 SERT/SHO-Air

Men - Junior - 15-18

 Place Points NameCity, StateTime USAC #BibTeam
1519.35Jordan McElroy   Truckee, CA0:26:25 296295  1403 TRUCKEE BICYCLE TEAM
2554.68Tayler Bates   Sacramento, CA0:27:31 325346  1400 Williams Cycling
3590.01Tucker Huffman   Elk Grove, CA0:31:56 300411  1402 
DNSGarrett Hankins   Carmichael, CA 298571  1401 Team City

Women - Hand Cycle

 Place Points NameCity, StateTime USAC #BibTeam
1carrie FINALE   0:41:58  2369 
2Thea Rosa   Cool0:51:30 296615  1552 
DNSMartha BARNETT     1550 

Women - Cat 4

 Place Points NameCity, StateTime USAC #BibTeam
1Lisa HOLM   0:26:25  1207 
2542.38Ellen Evans   Sacramento, CA0:26:45 310883  1205 Davis Bike Club Race Team
3544.76Linda Rodgers   San Jose, CA0:27:06 306417  1213 davis bike club
4547.14Stephanie Denison   El Dorado Hills, CA0:27:13 307550  1204 Team Mad Cat
5549.52Rebecca Siegel   Pasadena, CA0:27:30 285569  1215 The Team
6551.90Deanna McKenzie   Santarosa, CA0:27:51 303472  1211 Early Bird Womens Developmental Cycling Team
7554.28Yvonne Walbroehl   Mountain View, CA0:27:55 219164  1222 Peninsula Velo/Pomodoro
8556.66Maryann Schrupp   Reno, NV0:28:16 288460  1214 Kryki Sports
9559.04Kelly Thomas   Winters, CA0:28:40 307981  1218 Team Mason Thomas
10561.42Cristina Hughes   Zephyr Cove, NV0:29:14 325664  1208 
11Terri MAHANNAH   0:29:49  1210 
12Karen HUTCHINS   0:30:02  1209 
13Teri TEDMON   0:30:10  1231 
14Meg CONKLING   0:30:11  1230 
15Gale DE ROSA   0:30:20  1202 
16Pamela SPENCER   0:30:34  1216 Team Revolutions
17578.08Kimberly Thomas   Elmacero, CA0:30:43 308031  1219 Team Mason Thomas
18marcia DELLWO   0:30:47  1203 
19582.84Sirpa Aggarwal   Menlo Park, CA0:31:44 303782  1200 Velo Girls
20585.22Kieu Vu   San Francisco, CA0:32:22 323972  1221 Velo Girls
21587.60Michelle Tidalgo   Emerald Hills, CA0:32:42 323968  1220 Velo Girls
22589.98Catherine Swenson   Sacramento, CA0:32:44 291283  1217 Team Revolutions
DNSKaya Cohn   El Cerrito, CA 298978  1201 Metromint Cycling
DNSClari NOLET     1212 
DNFLisa Hern   Los Gatos, CA 258499  1206 Los Gatos Bicycle Racing Club

Women - Cat 1/2/3

 Place Points NameCity, StateTime USAC #BibTeam
1380.80Molly Van Houweling   Berkeley, CA0:24:05 201051  1115 Metromint Cycling
2398.23Lina Martensson   San Francisco, CA0:25:15 292733  1106 Metromint Cycling
3415.66Emily Kachorek   Sacramento, CA0:25:18 167636  1104 Wells Fargo Racing Team
4433.09Mary Elizabeth Maroon   Sacramento, CA0:25:23 219555  1105 Touchstone Climbing
5450.52Lauraleen Fenech   San Francisco, CA0:25:47 224272  1103 Bici Sport
6467.95susannah breen   Pleasant Hill, CA0:25:48 251128  1101 Wells Fargo Racing Team
7485.38Emily Matheu   Oakland, CA0:26:02 277109  1107 Third Pillar
8502.81Michelle Melka   Baltimore, MD0:26:22 302454  1108 Dolce Vita Cycling
9520.24Kimberly White   Grand Junction, CO0:26:55 209678  1116 Dolce Vita Cycling
10537.67Amanda Seigle   Citrus Heights, CA0:26:57 203755  1110 Metromint Cycling
11555.10Juliette Olson   Cloverdale, CA0:26:58 297368  1109 Team Norcal Bike Sport
12572.53Christine Sodaro   Tiburon, CA0:28:08 295205  1112 Colavita Racing-Norcal
13589.96Marissa Axell   El Cerrito, CA0:28:26 269569  1100 Touchstone Climbing
DNSJane Despas   Menlo Park, CA 105201  1102 Yahoo! Cycling Team
DNSAnn Stuart   Sacramento, CA 250365  1113 Touchstone Climbing
DNSJennifer Tafoya (Cat2)   Redwood City, CA 195302  1114 Pen Velo/Pomodoro

Report missing or incorrect license numbers

Volkswagen
Sierra NevadaShimanoUSACDFBonk BreakerSpy
UCI USA Cycling is the official governing body for all disciplines of competitive cycling in the United States. The 501c3, membership-based organization aims both to achieve sustained success in international cycling competition and to grow competitive cycling in America while delivering an exceptional customer experience.
View Children's Online Privacy Protection Policy
US Olympic Committee